Погода в Балхаше

Хотите узнать прогноз погоды в Балхаше? Тогда Вам сюда: Погода в Балхаше

Поиск расширенной информации на нашем сайте:

Полезная информация:

Новости сайта



02.01.2020
Опубликован Долгосрочный прогноз погоды по городам России и ближнего зарубежья на январь 2020 года.
Карты: Прогноз на январь и февраль 2020 года, Сравнение прогнозируемой аномалии приземной температуры воздуха на январь 2020 года по разным моделям.




Погода в Балхаше - сегодня

Время (UTC), дата Ветер
(°,м/с) 
Видим.   Явления Облачность Т
(°С)
Тd
(°С)
f(%) Тe
(°С)
Pmin
(гПа)
dP
(гПа)
Po
(мм)
O2
(г/м3)
Тmin Tmax R s Состояние
почвы
18 28.11.20 230 (ЮЗ) 13-16  10 км    10/10 1000 м 
[Sc]
-2.8 -6.2 77 -9  1035.2  1.3  743  303    -1       
21 28.11.20 250 (З) 8{15}  10 км    10/0 средняя 
[As op]
-4.7 -8.6 74 -10  1036.2  0.5  744  306           
00 29.11.20 250 (З) 10  10 км    10/0 средняя 
[As op]
-4.8 -9.2 71 -11  1037.4  1.1  744  306           
03 29.11.20 250 (З) 10 км    10/10 1000 м 
[Sc]
-6.3 -10.8 70 -11  1038.9  1.2  745  308        равномерный
сухой снег
100% 
06 29.11.20 280 (З) 4000 м  слаб. снег  10/10 1000 м 
[Ns]
-7.3 -9.4 85 -12  1040.9  1.7  747  310  -6.4         
09 29.11.20 280 (З) 4000 м  снежные зёрна  10/10 600 м 
[St]
-7.5 -9.7 84 -12  1040.9  747  310           
12 29.11.20 280 (З) 10 км  слаб. снег  10/10 1000 м 
[Ns]
-7.7 -9.1 90 -10  1042.3  1.3  748  311           
15 29.11.20 330 (СЗ) 10 км  слаб. снег  10/10 1000 м 
[Ns]
-9.7 -11.8 85 -13  1043.3  0.6  748  314    -6.2       
18 29.11.20 330 (СЗ) 10 км  в посл. час снег  10/0 средняя 
[As trans]
-11.3 -14.9 75 -14  1044  0.4  748  316    -6.2     
21 29.11.20 310 (СЗ) 10 км    ясно 
-16.1 -20 72 -16  1044.6  -0.3  748  322           
00 30.11.20 030 (СВ) 10 км    ясно 
-17.6 -21.6 71 -23  1045.9  0.9  749  324           
03 30.11.20 010 (С) 10 км    ясно 
-18.4 -22.7 69 -21  1047.8  1.7  750  326        равномерный
сухой снег
100% 
06 30.11.20 050 (СВ) 20000 м    ясно 
-15 -20.1 65 -20  1047.6  0.5  750  321  -18.5    0.2     
09 30.11.20 050 (СВ) 20000 м    ясно 
-13.3 -19.4 60 -19  1046.6  -0.7  750  319           
12 30.11.20 050 (СВ) 10 км  позёмок  ясно 
-15 -18.9 72 -21  1047  0.1  750  321           
15 30.11.20 050 (СВ) 10 км    ясно 
-17.8 -21.9 70 -23  1047.9  0.3  750  325    -12.3       
18 30.11.20 050 (СВ) 10 км    ясно 
-18.4 -22.2 72 -25  1047.5  -0.4  750  326    -12.3       
21 30.11.20 050 (СВ) 10 км    ясно 
-19.6 -23.1 74 -25  1046.5  -1.2  749  327           
00 01.12.20 050 (СВ) 10 км    ясно 
-20.2 -23.6 74 -26  1046.6  749  328           
03 01.12.20 050 (СВ) 20000 м    3/0 верхняя 
[Ci fib]
-17.8 -21.3 74 -23  1046  -0.2  749  324  -20.4      равномерный
сухой снег
100% 
06 01.12.20 050 (СВ) 20000 м    ясно 
-12.7 -17.4 68 -19  1044.8  -0.2  749  318  -20.4         
09 01.12.20 070 (В) 20000 м  позёмок  3/0 верхняя 
[Ci fib]
-8.9 -15.6 58 -15  1042.2  -1.9  747  313           
12 01.12.20 050 (СВ) 10 км    ясно 
-10.1 -15.1 67 -15  1042.3  747  314           
15 01.12.20 050 (СВ) 10 км    ясно 
-13.1 -17.4 70 -19  1043  0.1  747  318    -8       
18 01.12.20 050 (СВ) 10 км    ясно 
-14.3 -18.4 71 -20  1042.5  -0.6  747  319    -8       
Время (UTC), дата Ветер
(°,м/с) 
Видим.   Явления Облачность Т
(°С)
Тd
(°С)
f(%) Тe
(°С)
Pmin
(гПа)
dP
(гПа)
Po
(мм)
O2
(г/м3)
Тmin Tmax R s Состояние
почвы

Для получения пояснительной информации подведите курсор к названию столбца.

ПОГОДА в Балхаше - архив

Всё, что Вы хотите узнать о погоде в Балхаше - удобно и подробно!

Выберите нужную дату (начиная с 1 января 2019* года) и нажмите кнопку "Найти".
Будут отображены архивные сводки погоды по пункту Балхаш, начиная с указанной даты.


Отображать данные в формате CSV (для использования в таблицах Excel)


Внимание! Наш архив погоды предназначен исключительно для личного некоммерческого использования в познавательных целях. Если Вам необходимы официальные справки о состоянии погоды (для производственных, юридических, коммерческих и т.п. целей), обращайтесь в органы Росгидромета.

*Примечание: данная дата относится к архиву по метеостанциям СССР (Россия, СНГ, Балтия).
Архив по метеостанциям Зарубежной Европы и Азии (кроме Китая) хранится 10 дней, по другим регионам земного шара (Китай, Африка, Америка, Австралия, Океания) - 1 день.

Балхаш - район местоположения метеостанции


Название, широта, долгота, высота метеостанции:
Балхаш 46.8°ш. 75.1°д. 350 м над ур. моря [Казахстан]

Дополнительная информация

В oтличие oт бoльшинства пoгoдных сайтoв мы публикуем пoдрoбную метеoинфoрмацию в детальнoм прoфессиoнальнoм фoрмате.

Характеристики температуры и влажнoсти вoздуха измеряются на высoте 2 м в тени вдали oт зданий и деревьев.
Скoрoсть ветра измеряется на высoте 10 м (на урoвне рoста челoвека скoрoсть ветра ниже в 1.5-2 раза). Если метеoстанция нахoдится в гoрoде или в лесу, тo скoрoсть ветра занижена на 2-4 м/с пo сравнению с oткрытым местoм. Скoрoсть ветра над акватoриями крупных рек и oзёр, а также на вершинах хoлмoв на 2-5 м/с выше, чем в oбычных услoвиях.
Атмoсфернoе давление в разных тoчках местнoсти мoжет значительнo oтличаться oт давления на метеoстанции, в зависимoсти oт услoвий рельефа (при пoдъёме на 10 м давление пoнижается примернo на 1 мм рт.ст.).